• Join FlightAware (Why Join?)
  • Login
  • US Flag GB Flag 
02:50 EDT


 

Airport Tracker/Info


-or-


 

Live Flight TrackerFlight Track Log ✈ N498QS ✈ 08-Apr-2013 ✈ KPBI - KHPN

Flight Track Log - Related Links

Times and Time Zones

All times are in EDT time to prevent confusion due to time zone crossing. See the N498QS flight status page for this flight to view local times or setup timezone preferences in your user account.

Time Position Orientation Groundspeed Altitude Reporting Facility
EDT Latitude Longitude Course Direction KTS MPH feet Rate Location/Type
08:13 26.7242 -79.9617 51° Northeast 225 259 6,800  Level Miami Center
08:14 26.7756 -79.9072 43° Northeast 259 298 9,700 2,400 Climbing Miami Center
08:15 26.8439 -79.8297 45° Northeast 294 338 11,700 2,100 Climbing Miami Center
08:16 26.9019 -79.7428 53° Northeast 336 387 14,000 1,200 Climbing Miami Center
08:17 26.9581 -79.6603 53° Northeast 365 420 14,100 780 Climbing Miami Center
08:18 27.0784 -79.4432 61° Northeast  Level FlightAware Approximate
08:18 27.0247 -79.5522 55° Northeast 365 420 15,600  Level Miami Center
08:19 27.1474 -79.3304 51° Northeast  Level FlightAware Approximate
08:19 27.0892 -79.4533 54° Northeast 388 447 17,900  Level Miami Center
08:20 27.1558 -79.3500 54° Northeast 404 465 19,900 1,920 Climbing Miami Center
08:21 27.2200 -79.2531 53° Northeast 417 480 21,800 1,500 Climbing Miami Center
08:22 27.2908 -79.1425 54° Northeast 424 488 23,000 1,260 Climbing Miami Center
08:23 27.3781 -79.0272 50° Northeast 434 499 24,400 1,500 Climbing Miami Center
08:24 27.4917 -78.9683 25° Northeast 434 499 26,000 1,560 Climbing Miami Center
08:25 27.6092 -78.9425 11° North 422 486 27,600 1,620 Climbing Miami Center
08:26 27.7200 -78.9186 11° North 437 503 29,300 1,980 Climbing Miami Center
08:27 27.8603 -78.8906 10° North 449 517 31,600 2,100 Climbing Miami Center
08:28 27.9817 -78.8694 North 449 517 33,600 1,860 Climbing Miami Center
08:29 28.1053 -78.8456 10° North 449 517 35,400 1,860 Climbing Miami Center
08:30 28.2267 -78.8219 10° North 449 517 37,400 1,800 Climbing Miami Center
08:31 28.3417 -78.7978 10° North 443 510 39,000 1,380 Climbing Miami Center
08:32 28.4633 -78.7717 11° North 438 504 40,200 1,020 Climbing Miami Center
08:33 28.5844 -78.7500 North 432 497 41,100 1,080 Climbing Miami Center
08:34 28.7017 -78.7236 11° North 432 497 42,400 1,200 Climbing Miami Center
08:35 28.8211 -78.7019 North 432 497 43,500 780 Climbing Miami Center
08:36 28.9403 -78.6778 10° North 422 486 44,000 420 Climbing Miami Center
08:37 29.0636 -78.6536 10° North 428 493 44,400 480 Climbing Miami Center
08:38 29.1808 -78.6294 10° North 435 501 45,000 300 Climbing Miami Center
08:39 29.2939 -78.6003 13° North 428 493 45,000  Level Miami Center
08:40 29.4150 -78.5833 North 445 512 45,000  Level Miami Center
08:41 29.5406 -78.5592 10° North 451 519 45,000  Level Miami Center
08:42 29.6556 -78.5297 13° North 445 512 45,000  Level Miami Center
08:43 29.7256 -78.5044 17° North 446 513 45,000  Level Jacksonville Center
08:44 29.8583 -78.4839 North 446 513 45,000  Level Jacksonville Center
08:45 29.9803 -78.4472 15° North 453 521 45,000  Level Jacksonville Center
08:46 30.0997 -78.4008 19° North 456 525 45,000  Level Jacksonville Center
08:47 30.2175 -78.3642 15° North 444 511 45,000  Level Jacksonville Center
08:48 30.3389 -78.3200 17° North 444 511 45,000  Level Jacksonville Center
08:49 30.4669 -78.2800 15° North 458 527 45,000  Level Jacksonville Center
08:50 30.5928 -78.2378 16° North 454 522 45,000  Level Jacksonville Center
08:51 30.7103 -78.1958 17° North 447 514 45,000  Level Jacksonville Center
08:52 30.8339 -78.1558 16° North 452 520 45,000  Level Jacksonville Center
08:53 30.9575 -78.1133 16° North 458 527 45,000  Level Jacksonville Center
08:54 31.0664 -78.0642 21° North 451 519 45,000  Level Jacksonville Center
08:55 31.1881 -78.0286 14° North 456 525 45,000  Level Jacksonville Center
08:56 31.3117 -77.9858 16° North 451 519 45,000  Level Jacksonville Center
08:57 31.4375 -77.9428 16° North 451 519 45,000  Level Jacksonville Center
08:58 31.5589 -77.9022 16° North 456 525 45,000  Level Jacksonville Center
08:59 31.6847 -77.8614 15° North 456 525 45,000  Level Jacksonville Center
09:00 31.8081 -77.8178 17° North 456 525 45,000  Level Jacksonville Center
09:01 31.9317 -77.7767 16° North 450 518 45,000  Level Jacksonville Center
09:02 32.0550 -77.7308 17° North 450 518 45,000  Level Jacksonville Center
09:03 32.1764 -77.6894 16° North 450 518 45,000  Level Jacksonville Center
09:04 32.3019 -77.6431 17° North 456 525 45,000  Level Jacksonville Center
09:05 32.4233 -77.6017 16° North 456 525 45,000  Level Jacksonville Center
09:06 32.5489 -77.5572 17° North 456 525 45,000  Level Jacksonville Center
09:07 32.6700 -77.5133 17° North 451 519 45,000  Level Jacksonville Center
09:08 32.7933 -77.4689 17° North 451 519 45,000  Level Jacksonville Center
09:09 32.9167 -77.4242 17° North 451 519 45,000  Level Jacksonville Center
09:11 33.1306 -77.3472 17° North 445 512 45,000  Level Washington Center
09:12 33.2500 -77.3075 16° North 445 512 45,000  Level Washington Center
09:13 33.3717 -77.2628 17° North 445 512 45,000  Level Washington Center
09:14 33.4911 -77.2203 17° North 445 512 45,000  Level Washington Center
09:15 33.6106 -77.1753 17° North 445 512 45,000  Level Washington Center
09:16 33.7342 -77.1328 16° North 445 512 45,000  Level Washington Center
09:17 33.8536 -77.0875 17° North 445 512 45,000  Level Washington Center
09:18 33.9711 -77.0444 17° North 445 512 45,000  Level Washington Center
09:19 34.0925 -77.0014 16° North 445 512 45,000  Level Washington Center
09:20 34.2142 -76.9558 17° North 445 512 45,000  Level Washington Center
09:21 34.3336 -76.9125 17° North 445 512 45,000  Level Washington Center
09:22 34.4550 -76.8667 17° North 445 512 45,000  Level Washington Center
09:23 34.5744 -76.8231 17° North 445 512 45,000  Level Washington Center
09:24 34.6958 -76.7769 17° North 445 512 45,000  Level Washington Center
09:25 34.8194 -76.7306 17° North 445 512 45,000  Level Washington Center
09:26 34.9408 -76.6842 17° North 450 518 45,000  Level Washington Center
09:27 35.0644 -76.6400 16° North 450 518 45,000  Level Washington Center
09:28 35.1858 -76.5908 18° North 450 518 45,000  Level Washington Center
09:29 35.3072 -76.5467 17° North 449 517 45,000  Level Washington Center
09:30 35.4264 -76.4994 18° North 454 522 45,000  Level Washington Center
09:31 35.5500 -76.4550 16° North 449 517 45,000  Level Washington Center
09:32 35.6714 -76.4078 18° North 454 522 45,000  Level Washington Center
09:33 35.7925 -76.3603 18° North 454 522 45,000  Level Washington Center
09:34 35.9161 -76.3153 16° North 459 528 45,000  Level Washington Center
09:35 36.0394 -76.2675 17° North 459 528 45,000  Level Washington Center
09:36 36.1606 -76.2172 19° North 459 528 45,000  Level Washington Center
09:37 36.2839 -76.1717 17° North 459 528 45,000  Level Washington Center
09:38 36.4072 -76.1261 17° North 459 528 45,000  Level Washington Center
09:39 36.5286 -76.0781 18° North 459 528 45,000  Level Washington Center
09:40 36.6475 -76.0294 18° North 459 528 45,000  Level Washington Center
09:41 36.7708 -75.9783 18° North 459 528 45,000  Level Washington Center
09:42 36.8961 -75.9294 17° North 464 534 45,000  Level Washington Center
09:43 37.0361 -75.8781 16° North 473 544 45,000  Level Washington Center
09:44 37.1572 -75.8292 18° North 467 537 45,000  Level Washington Center
09:45 37.2803 -75.7797 18° North 467 537 45,000  Level Washington Center
09:46 37.4033 -75.7331 17° North 462 532 45,000  Level Washington Center
09:47 37.5267 -75.6833 18° North 462 532 45,000  Level Washington Center
09:48 37.6497 -75.6339 18° North 462 532 45,000  Level Washington Center
09:49 37.7728 -75.5839 18° North 462 532 45,000  Level Washington Center
09:50 37.8958 -75.5367 17° North 462 532 45,000  Level Washington Center
09:51 38.0167 -75.4864 18° North 462 532 45,000  Level Washington Center
09:52 38.1375 -75.4228 22° Northeast 462 532 45,000 -480 Level Washington Center
09:53 38.2542 -75.3431 28° Northeast 467 537 44,100 -1,500 Descending Washington Center
09:54 38.3728 -75.2658 27° Northeast 467 537 42,000 -2,220 Descending Washington Center
09:55 38.4894 -75.1886 27° Northeast 467 537 39,700 -2,400 Descending Washington Center
09:56 38.6100 -75.1189 24° Northeast 467 537 37,300 -1,380 Descending Washington Center
09:57 38.7244 -75.0461 26° Northeast 462 532 37,000 -180 Descending Washington Center
09:58 38.8386 -74.9733 26° Northeast 462 532 37,000  Level Washington Center
09:59 38.9447 -74.9031 27° Northeast 462 532 37,000 -900 Level Washington Center
10:00 39.0589 -74.8325 26° Northeast 462 532 35,300 -2,100 Descending Washington Center
10:01 39.1664 -74.7269 37° Northeast 446 513 32,900 -2,220 Descending Washington Center
10:03 39.3636 -74.5275 38° Northeast 474 545 28,600 -2,160 Descending New York Center
10:04 39.4675 -74.4119 41° Northeast 457 526 26,300 -2,220 Descending New York Center
10:05 39.5578 -74.3169 39° Northeast 451 519 24,300 -1,320 Descending New York Center
10:06 39.6547 -74.2167 39° Northeast 451 519 23,700 -660 Descending New York Center
10:07 39.7600 -74.1086 38° Northeast 441 507 23,000 -360 Descending New York Center
10:08 39.8544 -74.0075 39° Northeast 441 507 23,000  Level New York Center
10:09 40.0308 -73.8194 39° Northeast 434 499 23,000 -360 Level Boston Center
10:10 40.1258 -73.7181 39° Northeast 434 499 22,000 -1,620 Descending Boston Center
10:11 40.2164 -73.6222 39° Northeast 429 494 19,800 -2,100 Descending Boston Center
10:12 40.3028 -73.5258 40° Northeast 418 481 17,900 -1,440 Descending Boston Center
10:13 40.3972 -73.4511 31° Northeast 412 474 16,900 -540 Descending Boston Center
10:14 40.4808 -73.4194 16° North 386 444 16,900 -360 Level Boston Center
10:16 40.5977 -73.3735 17° North  Level FlightAware Approximate
10:16 40.7000 -73.3333 17° North 358 412 16,000  Level New York TRACON
10:17 40.7833 -73.3000 17° North 329 379 15,100 -1,440 Descending New York TRACON
10:18 40.8667 -73.2500 24° Northeast 311 358 13,000 -2,040 Descending New York TRACON
10:19 40.9500 -73.2333 North 294 338 10,900 -2,640 Descending New York TRACON
10:20 41.0167 -73.2000 21° North 282 325 7,800 -3,180 Descending New York TRACON
10:21 41.0833 -73.2500 331° Northwest 244 281 4,600 -2,460 Descending New York TRACON
10:22 41.1000 -73.3167 288° West 242 278 2,900 -1,200 Descending New York TRACON
10:23 41.0667 -73.4000 242° Southwest 245 282 2,200 -480 Descending New York TRACON
10:25 41.0333 -73.4667 236° Southwest 200 230 2,000 -120 Descending New York TRACON
10:26 41.0000 -73.5167 229° Southwest 181 208 2,000  Level New York TRACON
10:26 40.9667 -73.5667 229° Southwest 179 206 2,000  Level New York TRACON
10:27 40.9500 -73.6167 246° West 149 171 2,000  Level New York TRACON
10:28 40.9833 -73.6500 323° Northwest 148 170 2,000 -480 Level New York TRACON
10:30 41.0333 -73.6833 333° Northwest 139 160 1,100 -840 Descending New York TRACON